| time (UTC) | temp F | wind direction | speed MPH | gust MPH | rain 1hr in | rain 24hr in | rain mn in | humidity % | barometer mb |
| 20260506163105 | 64 | 229 | 4.0 | 10.0 | 0.00 | 0.63 | 0.62 | 63 | 1009.7 |
| 20260506161542 | 65 | 257 | 4.0 | 11.0 | 0.00 | 0.63 | 0.62 | 62 | 1009.8 |
| 20260506160042 | 64 | 238 | 6.0 | 11.0 | 0.00 | 0.63 | 0.62 | 63 | 1009.8 |
| 20260506154525 | 65 | 250 | 4.0 | 11.0 | 0.00 | 0.63 | 0.62 | 62 | 1009.7 |
| 20260506153024 | 64 | 240 | 4.0 | 12.0 | 0.00 | 0.63 | 0.62 | 62 | 1009.6 |
| 20260506151523 | 65 | 248 | 5.0 | 9.0 | 0.00 | 0.63 | 0.62 | 61 | 1009.6 |
| 20260506150027 | 66 | 246 | 6.0 | 11.0 | 0.00 | 0.63 | 0.62 | 60 | 1009.7 |
| 20260506144524 | 66 | 238 | 6.0 | 13.0 | 0.00 | 0.63 | 0.62 | 59 | 1009.8 |
| 20260506143021 | 66 | 240 | 6.0 | 12.0 | 0.00 | 0.63 | 0.62 | 58 | 1009.8 |
| 20260506141617 | 66 | 266 | 6.0 | 13.0 | 0.00 | 0.63 | 0.62 | 56 | 1009.8 |
| 20260506140015 | 66 | 228 | 5.0 | 15.0 | 0.00 | 0.63 | 0.62 | 55 | 1009.9 |
| 20260506134514 | 66 | 218 | 4.0 | 14.0 | 0.00 | 0.63 | 0.62 | 60 | 1009.9 |
| 20260506133012 | 66 | 244 | 4.0 | 17.0 | 0.00 | 0.63 | 0.62 | 60 | 1010.1 |
| 20260506131546 | 67 | 248 | 6.0 | 14.0 | 0.00 | 0.63 | 0.62 | 59 | 1010.1 |
| 20260506130044 | 66 | 194 | 6.0 | 11.0 | 0.00 | 0.63 | 0.62 | 59 | 1010.1 |
| 20260506124508 | 66 | 231 | 6.0 | 12.0 | 0.00 | 0.63 | 0.62 | 60 | 1010.1 |
| 20260506123056 | 65 | 250 | 2.0 | 12.0 | 0.00 | 0.63 | 0.62 | 60 | 1010.0 |
| 20260506121556 | 66 | 249 | 2.0 | 10.0 | 0.00 | 0.63 | 0.62 | 61 | 1010.1 |
| 20260506120059 | 66 | 242 | 5.0 | 9.0 | 0.00 | 0.63 | 0.62 | 58 | 1010.2 |
| 20260506114604 | 66 | 290 | 2.0 | 11.0 | 0.00 | 0.63 | 0.62 | 60 | 1010.1 |
| 20260506113053 | 66 | 232 | 3.0 | 10.0 | 0.00 | 0.63 | 0.62 | 58 | 1010.2 |
| 20260506111549 | 65 | 303 | 3.0 | 8.0 | 0.00 | 0.63 | 0.62 | 56 | 1010.4 |
| 20260506110055 | 65 | 267 | 4.0 | 9.0 | 0.00 | 0.63 | 0.62 | 59 | 1010.4 |
| 20260506104547 | 65 | 258 | 3.0 | 9.0 | 0.00 | 0.63 | 0.62 | 60 | 1010.5 |
| 20260506103028 | 64 | 245 | 5.0 | 9.0 | 0.00 | 0.63 | 0.62 | 61 | 1010.6 |
| 20260506101513 | 63 | 238 | 3.0 | 8.0 | 0.00 | 0.63 | 0.62 | 67 | 1010.5 |
| 20260506100011 | 63 | 289 | 1.0 | 8.0 | 0.00 | 0.63 | 0.62 | 68 | 1010.6 |
| 20260506094508 | 62 | 269 | 1.0 | 6.0 | 0.00 | 0.63 | 0.62 | 70 | 1010.5 |
| 20260506093005 | 62 | 252 | 4.0 | 7.0 | 0.00 | 0.63 | 0.62 | 69 | 1010.4 |
| 20260506091502 | 61 | 344 | 1.0 | 7.0 | 0.00 | 0.63 | 0.62 | 70 | 1010.3 |
| 20260506090059 | 61 | 22 | 1.0 | 7.0 | 0.00 | 0.63 | 0.62 | 75 | 1010.3 |
| 20260506084555 | 59 | 254 | 2.0 | 5.0 | 0.00 | 0.63 | 0.62 | 78 | 1010.2 |
| 20260506083059 | 59 | 256 | 2.0 | 8.0 | 0.00 | 0.63 | 0.62 | 83 | 1010.2 |
| 20260506081548 | 58 | 232 | 2.0 | 7.0 | 0.00 | 0.63 | 0.62 | 87 | 1010.1 |
| 20260506073045 | 54 | 264 | 2.0 | 4.0 | 0.00 | 0.63 | 0.62 | 94 | 1009.9 |
| 20260506071534 | 54 | 265 | 0.0 | 2.0 | 0.00 | 0.63 | 0.62 | 94 | 1009.9 |
| 20260506044555 | 52 | 360 | 1.0 | 5.0 | 0.00 | 0.63 | 0.62 | 94 | 1008.6 |
| 20260506043055 | 52 | 360 | 0.0 | 0.0 | 0.00 | 0.63 | 0.62 | 94 | 1008.5 |
| 20260506041556 | 53 | 360 | 0.0 | 4.0 | 0.00 | 0.63 | 0.62 | 94 | 1008.5 |
| 20260506040101 | 53 | 360 | 0.0 | 3.0 | 0.00 | 0.63 | 0.62 | 94 | 1008.5 |
| 20260506034605 | 53 | 80 | 0.0 | 0.0 | 0.00 | 0.63 | 0.62 | 94 | 1008.5 |
| 20260506033051 | 53 | 360 | 0.0 | 2.0 | 0.00 | 0.63 | 0.62 | 94 | 1008.4 |
| 20260506031600 | 52 | 360 | 0.0 | 2.0 | 0.00 | 0.63 | 0.62 | 94 | 1008.4 |
| 20260506030049 | 52 | 360 | 0.0 | 2.0 | 0.00 | 0.63 | 0.62 | 94 | 1008.4 |
| 20260506024551 | 52 | 360 | 0.0 | 0.0 | 0.00 | 0.63 | 0.62 | 94 | 1008.1 |
| 20260506023048 | 52 | 360 | 0.0 | 1.0 | 0.00 | 0.63 | 0.62 | 93 | 1008.0 |
| 20260506021550 | 52 | 76 | 0.0 | 0.0 | 0.01 | 0.63 | 0.62 | 93 | 1007.8 |
| 20260506020044 | 52 | 76 | 0.0 | 1.0 | 0.02 | 0.63 | 0.62 | 93 | 1007.5 |
| 20260506014543 | 52 | 76 | 1.0 | 4.0 | 0.07 | 0.65 | 0.62 | 93 | 1007.2 |
| 20260506013044 | 53 | 75 | 1.0 | 2.0 | 0.17 | 0.65 | 0.62 | 93 | 1007.1 |
| 20260506011540 | 53 | 71 | 0.0 | 3.0 | 0.28 | 0.64 | 0.61 | 92 | 1006.7 |
| 20260506010041 | 53 | 71 | 0.0 | 4.0 | 0.37 | 0.63 | 0.60 | 93 | 1007.7 |
| 20260506004536 | 54 | 43 | 1.0 | 3.0 | 0.36 | 0.61 | 0.55 | 92 | 1008.1 |
| 20260506003032 | 54 | 262 | 1.0 | 4.0 | 0.27 | 0.50 | 0.44 | 92 | 1009.0 |
| 20260506001528 | 55 | 279 | 2.0 | 10.0 | 0.22 | 0.39 | 0.33 | 92 | 1009.1 |
| 20260506000024 | 56 | 250 | 0.0 | 5.0 | 0.17 | 0.28 | 0.23 | 92 | 1008.9 |
| 20260505234522 | 56 | 304 | 1.0 | 3.0 | 0.18 | 0.35 | 0.19 | 91 | 1008.8 |
| 20260505233021 | 57 | 304 | 0.0 | 1.0 | 0.17 | 0.33 | 0.17 | 91 | 1008.3 |
| 20260505231526 | 57 | 304 | 0.0 | 2.0 | 0.11 | 0.27 | 0.11 | 90 | 1008.8 |
| 20260505230022 | 57 | 304 | 0.0 | 2.0 | 0.05 | 0.21 | 0.05 | 90 | 1009.2 |
| 20260505224512 | 57 | 304 | 0.0 | 2.0 | 0.01 | 0.44 | 0.01 | 89 | 1009.2 |
| 20260505223014 | 57 | 304 | 0.0 | 1.0 | 0.01 | 0.43 | 0.00 | 88 | 1009.2 |
| 20260505221510 | 57 | 304 | 0.0 | 0.0 | 0.01 | 0.43 | 0.00 | 87 | 1009.2 |
| 20260505220006 | 58 | 304 | 0.0 | 1.0 | 0.01 | 0.43 | 0.00 | 87 | 1009.6 |
| 20260505214505 | 58 | 304 | 1.0 | 6.0 | 0.01 | 0.51 | 0.43 | 86 | 1009.8 |
| 20260505213004 | 59 | 265 | 1.0 | 4.0 | 0.00 | 0.50 | 0.42 | 84 | 1010.3 |
| 20260505211504 | 59 | 273 | 1.0 | 4.0 | 0.00 | 0.50 | 0.42 | 81 | 1010.3 |
| 20260505210003 | 58 | 171 | 1.0 | 3.0 | 0.00 | 0.50 | 0.42 | 76 | 1010.4 |
| 20260505204502 | 59 | 169 | 0.0 | 1.0 | 0.00 | 0.50 | 0.42 | 74 | 1009.9 |
| 20260505203002 | 59 | 174 | 1.0 | 4.0 | 0.00 | 0.50 | 0.42 | 74 | 1009.9 |
| 20260505201502 | 59 | 195 | 0.0 | 2.0 | 0.00 | 0.50 | 0.42 | 74 | 1009.9 |
| 20260505200103 | 59 | 195 | 0.0 | 3.0 | 0.00 | 0.50 | 0.42 | 75 | 1009.8 |
| 20260505194622 | 59 | 197 | 0.0 | 2.0 | 0.00 | 0.50 | 0.42 | 79 | 1009.6 |
| 20260505194504 | 59 | 197 | 0.0 | 1.0 | 0.00 | 0.50 | 0.42 | 79 | 1009.6 |
| 20260505193059 | 59 | 197 | 0.0 | 2.0 | 0.00 | 0.50 | 0.42 | 79 | 1009.6 |
| 20260505191559 | 60 | 197 | 0.0 | 2.0 | 0.00 | 0.50 | 0.42 | 78 | 1009.6 |
| 20260505190058 | 61 | 197 | 0.0 | 1.0 | 0.00 | 0.50 | 0.42 | 76 | 1009.9 |
| 20260505184558 | 61 | 197 | 0.0 | 2.0 | 0.00 | 0.76 | 0.42 | 74 | 1009.8 |
| 20260505183058 | 62 | 197 | 0.0 | 2.0 | 0.00 | 0.76 | 0.42 | 73 | 1009.9 |
| 20260505181659 | 62 | 197 | 0.0 | 2.0 | 0.00 | 0.76 | 0.42 | 72 | 1010.0 |
| 20260505180021 | 63 | 197 | 2.0 | 5.0 | 0.00 | 0.76 | 0.42 | 70 | 1010.0 |
| 20260505174557 | 64 | 180 | 1.0 | 4.0 | 0.00 | 0.78 | 0.42 | 64 | 1009.9 |
| 20260505173056 | 65 | 177 | 1.0 | 6.0 | 0.00 | 0.78 | 0.42 | 63 | 1009.8 |
| 20260505171554 | 66 | 167 | 3.0 | 5.0 | 0.00 | 0.78 | 0.42 | 60 | 1009.8 |
| 20260505170054 | 67 | 173 | 2.0 | 6.0 | 0.00 | 0.78 | 0.42 | 59 | 1009.9 |
| 20260505164614 | 67 | 229 | 2.0 | 8.0 | 0.00 | 0.79 | 0.42 | 61 | 1010.0 |